Location: Hains Lake
(37.8540°N, 99.8578°W)
Time: 07:54:12
(UTC+00:00)

Vanguard 3 - Pass Details

Date: 27 April 2021
Orbit: 508 x 3262 km, 33.3° (Epoch: 09 May)

Event Time Altitude Azimuth Distance (km) Brightness Sun altitude
Rises 03:26:53 0° 216° (SW) 6,437 11.7 -21.7°
Reaches altitude 10° 03:32:36 10° 206° (SSW) 4,965 11.0 -22.6°
Enters shadow 03:41:01 25° 170° (S) 3,072 9.6 -23.8°
